Find Starlink 36544

NORAD ID: 67517 Int'l Des: 2026-012 Owner: SPXS Country: US Constellation: starlink operational
LEOCIRCULAR

現在のビュー

3D地球を読み込み中...

Starlink 36544について

説明を読み込み中...

次回通過

Passes for default location (London). Set your location on the main map for personalized predictions.

高度履歴

Loading altitude history...

軌道要素

1 67517U 26012AA 26145.59178282 .00012018 00000-0 44534-3 0 9992
2 67517 43.0034 240.0387 0001560 265.3343 94.7331 15.27594163 19521
Epoch: May 25, 2026 • Age: 31 hours

現在のステータス

高度 485.3 km
速度 7.62 km/s
衛星直下点 -14.98°S, 9.26°E
打ち上げ日 Jan 18, 2026
運用期間 0.3 years
タイプ internet

技術仕様

分類 Payload
質量 575.00 kg
乾燥質量 530.00 kg
総質量 575.00 kg
長さ 0.30 m
直径 4.10 m
スパン 29.00 m
形状 Box + pan
製造者 SPXS
バスタイプ Starlink V2MO
フェーズステータス In Orbit
所有者/国 SPXS/US

Most Searched